User: anonymous   Login
Location: Bluff Heights
(33.7692°N, 118.1592°W)
Time: 13:30:15
(UTC+00:00)
Language:

AO-73 - Orbit

View from above orbital plane
View from above orbital plane
View from above satellite
View from above satellite

Ground track
Ground track

The orbit data is extracted from the following two-line orbital elements,

1 39444U 13066AE  21266.91122389  .00000446  00000-0  60381-4 0  9998
2 39444  97.5929 248.5687 0057223 186.6590 173.3870 14.82522849422025
Epoch (UTC): 23 September 2021 21:52:09
Eccentricity: 0.0057223
inclination: 97.5929°
perigee height: 581 km
apogee height: 661 km
right ascension of ascending node: 248.5687°
argument of perigee: 186.6590°
revolutions per day: 14.82522849
mean anomaly at epoch: 173.3870°
orbit number at epoch: 42202

The dashed part of the orbit path shows where the satellite is in the earth's shadow,  

DLR